Location: Mauna Kea VIS
(19.7591°N, 155.4561°W)
Time: 00:28:20
(UTC-10:00)

Daily predictions for brighter satellites

Satellite Brightness Start Highest point End
(mag) Time Altitude Azimuth Time Altitude Azimuth Time Altitude Azimuth
SL-16 R/B 4.4 03:38:50 18° NNW 03:38:50 18° NNW 03:40:12 10° NNW
Nadezhda 1 Rocket 4.2 03:44:26 64° ESE 03:44:43 65° E 03:50:55 10° NNE
MOZ.5/SAFIR/RUBIN 5/SL-8 4.4 03:58:57 52° ENE 03:58:57 52° ENE 04:03:25 10° N
Geosat 4.2 03:57:44 10° NNE 04:02:43 66° ESE 04:02:46 66° ESE
Cosmos 1190 Rocket 4.4 04:11:39 49° NNW 04:11:39 49° NNW 04:15:38 10° N
Atlas Centaur 2 2.8 04:12:52 31° N 04:12:52 31° N 04:16:53 10° NE
Cosmos 1908 Rocket 4.2 04:09:48 10° N 04:12:59 48° N 04:12:59 48° N
Okean O Rocket 3.7 04:17:16 10° NNW 04:18:26 17° NNW 04:18:26 17° NNW
Cosmos 2074 Rocket 3.8 04:16:34 10° N 04:22:44 70° W 04:28:24 13° S
Aureole 3 Rocket 4.2 04:19:45 26° SSW 04:24:37 66° W 04:30:38 10° N
Cosmos 2327 Rocket 4.3 04:18:40 10° N 04:24:46 70° W 04:30:57 10° S
CZ-4B R/B 3.6 04:20:56 10° N 04:25:20 42° WNW 04:25:20 42° WNW
CZ-4B DEB 4.3 04:21:34 10° N 04:26:48 49° WNW 04:26:51 49° WNW
Skynet4D Del rocket 4.4 04:22:44 33° WNW 04:26:52 85° NNE 04:34:14 10° ESE
USA 32 4.1 04:27:34 52° WNW 04:27:34 52° WNW 04:32:22 10° N
Cosmos 2184 Rocket 3.9 04:21:58 10° NNW 04:28:14 65° W 04:34:28 10° S
Okean-O 2.6 04:24:17 10° NNE 04:28:42 79° E 04:30:18 39° S
Cosmos 1992 Rocket 4.4 04:23:53 10° N 04:29:03 63° ENE 04:34:12 10° SSE
Cosmos 1954 Rocket 4.0 04:27:05 34° S 04:29:23 80° ESE 04:34:33 10° NNE
Centaur D-1A AC-35 3.8 04:26:51 28° SW 04:31:39 49° SSE 04:35:48 10° E
Cosmos 2082 Rocket 3.8 04:27:04 10° SSE 04:32:06 33° ESE 04:37:08 10° NE
ADEOS II 2.1 04:29:25 10° NNE 04:34:41 83° ESE 04:39:01 15° S
SL-08 ROCKET BODY 4.4 04:29:38 10° NNW 04:35:36 59° W 04:41:37 10° S
Cosmos 1825 4.0 04:33:33 10° NNW 04:34:52 20° NNW 04:34:52 20° NNW
Cosmos 1943 Rocket 2.2 04:32:36 10° NNW 04:38:04 54° WSW 04:43:29 10° S
CZ-3 Stage 3 4.0 04:26:49 10° WNW 04:41:58 28° WSW 04:46:36 10° S
Cosmos 1610 Rocket 4.4 04:36:46 10° N 04:43:01 72° W 04:49:11 10° S
ADEOS Rocket 3.5 04:36:23 10° N 04:44:08 72° WNW 04:51:32 10° SSW
Cosmos 1833 Rocket 4.3 04:40:15 10° SSE 04:45:13 34° ESE 04:50:12 10° NE
BREEZE M DEB (TANK) 1.7 04:46:00 55° ENE 04:46:00 55° ENE 04:48:07 10° NE
Meteor 1-31 Rocket 3.5 04:42:07 10° NNE 04:45:50 52° E 04:49:32 10° S
Cosmos 676 Rocket 4.3 04:47:03 35° WSW 04:48:28 44° WNW 04:53:22 10° N
SWIFT 4.2 04:47:16 17° S 04:48:43 20° SSE 04:51:51 10° ESE
PSLV R/B 3.9 04:46:01 10° N 04:50:11 45° WNW 04:51:29 35° WSW
Cosmos 2341 Rocket 4.4 04:43:57 10° N 04:50:14 67° E 04:56:32 10° SSE
Okean 1-7 4.1 04:54:23 26° WNW 04:54:23 26° WNW 04:57:28 10° NNW
CZ-4B R/B 4.1 04:55:31 10° NNE 04:59:58 83° ESE 05:04:16 10° S
Cosmos 2285 Rocket 4.0 04:53:58 10° NNW 05:00:12 57° WSW 05:06:22 10° S
XTE 3.7 05:02:27 31° SSW 05:03:26 43° SSE 05:06:22 10° E
Cosmos 962 Rocket 4.5 04:58:39 10° N 05:04:56 90° N 05:11:08 10° S
Gbstr 26 Del rocket 4.3 05:00:35 16° SW 05:06:10 85° NW 05:14:04 10° NE
USA 229 DEB 3.9 04:59:18 10° SSW 05:06:10 76° ESE 05:13:05 10° NNE
USA 229 3.9 04:59:24 10° SSW 05:06:16 75° ESE 05:13:11 10° NNE
Cosmos 1656 Rocket 3.5 05:01:26 10° NNW 05:06:48 70° WSW 05:12:10 10° S
Okean 2 Rocket 3.5 05:08:42 10° NNW 05:12:55 40° W 05:17:08 10° SSW
SeaSat 1 3.1 05:12:27 10° S 05:16:48 32° WSW 05:21:11 10° NW
Cosmos 2084 Rocket 3.8 05:15:15 10° SSW 05:19:21 62° ESE 05:23:15 10° NE
Cosmos 1674 Rocket 3.5 05:15:19 10° SSW 05:19:44 69° W 05:24:09 10° N
Centaur D-1AR AC-41 3.7 05:16:22 14° W 05:19:52 82° N 05:32:46 10° E
BREEZE-M DEB (TANK) 3.2 05:22:13 17° W 05:23:30 26° SW 05:26:32 10° SSE
Meteor 2-13 Rocket 4.4 05:18:19 10° NNW 05:24:18 68° W 05:30:18 10° S
Cosmos 1140 Rocket 4.0 05:19:47 10° SW 05:24:30 38° WNW 05:29:14 10° N
CSL-04 Rocket 4.1 05:24:44 10° NNE 05:30:02 67° ESE 05:35:16 10° S
CZ-4 R/B 4.3 05:27:54 10° NE 05:30:37 18° E 05:33:20 10° SE
Cosmos 1741 Rocket 4.2 05:27:54 10° SSW 05:32:57 49° WNW 05:37:59 10° N
Cosmos 1242 Rocket 2.9 05:31:05 10° S 05:34:40 70° E 05:38:20 10° NNE
Cosmos 1782 3.5 05:31:39 10° SSW 05:35:15 32° W 05:38:52 10° NNW
Cosmos 1378 Rocket 3.5 05:37:17 10° S 05:41:35 85° W 05:45:53 10° N
SEDSat Delta rocket 3.0 05:38:32 10° WSW 05:42:38 73° NNW 05:47:10 10° ENE
Cosmos 614 Rocket 4.5 05:38:25 10° SW 05:43:10 38° WNW 05:47:53 10° N
COSMO-SKYMED 1 3.4 05:39:04 10° SSE 05:43:18 58° ENE 05:47:33 10° N
MOS 1 Rocket 3.9 05:40:17 10° NNW 05:44:01 30° WNW 05:47:50 10° SW
OAO 3 Rocket 3.4 05:40:42 10° WSW 05:45:24 57° NNW 05:50:02 10° NE
CZ-3A R/B 3.4 05:32:30 10° WSW 05:46:47 41° S 05:50:12 10° E
Delta 168 3.5 05:42:27 10° WSW 05:49:03 78° NNW 05:53:22 10° ENE
